{"data":{"norad_id":45673,"intl_designator":"2020-035S","name":"STARLINK-1456","alt_names":[],"object_type":"PAYLOAD","status":"ACTIVE","operator":null,"country":"US","launch_date":"2020-06-04","launch_site_code":"AFETR","launch_vehicle":null,"mission":null,"orbit_class":"UNKNOWN","rcs_meters":null,"size_class":null,"mass_kg":null,"dimensions":null,"purposes":["comms"],"wikipedia_slug":null,"has_3d_model":false,"image_url":null,"decayed_at":null,"tle_current":{"epoch":"2026-05-24T22:53:03.895584Z","epoch_age_seconds":74957,"freshness":"FRESH","line1":"1 45673U 20035S   26144.95351731  .00086616  00000+0  91721-3 0  9995","line2":"2 45673  53.0420  36.6310 0005924 101.7094 258.4585 15.63410733330907","mean_motion":15.63410733,"eccentricity":0.0005924,"inclination_deg":53.042,"raan_deg":36.631,"arg_perigee_deg":101.7094,"mean_anomaly_deg":258.4585,"bstar":0.00091721,"rev_number":33090,"period_min":92.106314073769,"perigee_km":373.8111146414,"apogee_km":381.81556460379,"semimajor_km":6755.9503396226,"source":"CELESTRAK","updated_at":"2026-05-25T13:38:16.427817Z"}}}